Location: Newark
(51.2625°N, 13.3939°E)
Time: 00:35:34
(UTC+00:00)

Transit 2A Rocket - Pass Details

Date: 17 January 2021
Orbit: 594 x 909 km, 66.7° (Epoch: 03 March)

Event Time Altitude Azimuth Distance (km) Brightness Sun altitude
Rises 15:57:24 0° 276° (W) 3,226 9.3 -4.4°
Reaches altitude 10° 16:00:40 10° 296° (WNW) 2,234 8.0 -4.8°
Maximum altitude 16:04:01 17° 338° (NNW) 1,721 6.8 -5.3°
Drops below altitude 10° 16:07:12 10° 20° (NNE) 2,107 6.9 -5.7°
Enters shadow 16:09:06 - 35° (NE) 2,628 7.2 -6.0°
